Simultaneous Nadir Overpasses (SNOs) Predictions

Prediction of SNOs between GOES-17 and METOP-B Satellite Orbit:

Table of predicted SNOs for the next 14.0 days since TLE Epoch: 12/9/2023
Index Date Time (GOES-17) GOES-17 Lat,Lon METOP-B Lat,Lon Distance(km) Time Diff (sec)
1 12/10/2023 04:41:58 0.01,-104.67 -0.83,-108.28 411.80 80
2 12/11/2023 04:18:38 0.01,-104.67 0.33,-103.29 157.69 80
3 12/12/2023 16:37:27 -0.01,-104.68 0.67,-107.85 360.34 80
4 12/13/2023 16:19:26 -0.01,-104.68 -0.42,-102.85 209.14 80
5 12/15/2023 04:38:23 0.01,-104.66 -0.61,-107.44 315.83 80
6 12/16/2023 04:15:01 0.00,-104.66 0.49,-102.43 253.42 80
7 12/17/2023 16:33:51 0.01,-104.67 0.51,-107.00 264.68 80
8 12/18/2023 16:15:49 0.02,-104.67 -0.60,-102.00 305.22 80
9 12/20/2023 04:34:46 -0.02,-104.66 -0.43,-106.59 218.81 80
10 12/21/2023 04:11:25 -0.02,-104.66 0.68,-101.59 350.77 80
11 12/22/2023 16:30:13 0.02,-104.67 0.37,-106.14 167.64 80
